Weather History for Sanford, ME

Change the Weather History Date:

Tuesday, September 11, 2012

  Actual Average Record
Temperature  
Mean Temperature 56 °F -  
Max Temperature 73 °F 71 °F 93 °F (2013)
Min Temperature 39 °F 48 °F 28 °F (1999)
Degree Days  
Heating Degree Days 9    
Growing Degree Days 6 (Base 50)    
Moisture  
Dew Point 43 °F    
Average Humidity 65    
Maximum Humidity 93    
Minimum Humidity 31    
Precipitation  
Precipitation 0.00 in - - ()
Sea Level Pressure  
Sea Level Pressure 30.15 in    
Wind  
Wind Speed 5 mph (West)    
Max Wind Speed 10 mph    
Max Gust Speed 17 mph    
Visibility 10 miles    
Events      
Averages and records for this station are not official NWS values.
T = Trace of Precipitation, MM = Missing Value Source: NWS Daily Summary

Daily Weather History Graph

Daily Weather History Graph

Search for Another Location

Airport:

Trip Planner

Search our weather history database for the weather conditions in past years. The results will help you decide how hot, cold, wet, or windy it might be!

Date:

Astronomy

Sep. 11, 2012 Rise Set
Actual Time 6:18 AM EDT 6:59 PM EDT
Civil Twilight 5:49 AM EDT 7:28 PM EDT
Nautical Twilight 5:15 AM EDT 8:02 PM EDT
Astronomical Twilight 4:39 AM EDT 8:37 PM EDT
Moon 1:25 AM EDT (9/11) 4:13 PM EDT (9/11)
Length of Visible Light 13h 38m
Length of Day
12h 41m
Waning Crescent, 21% of the Moon is Illuminated
Sep 11
Waning Crescent
Sep 15
New
Sep 22
First Quarter
Sep 29
Full
Oct 8
Last Quarter

Hourly Weather History & Observations

Time (EDT) Temp. Windchill Dew Point Humidity Pressure Visibility Wind Dir Wind Speed Gust Speed Precip Events Conditions
12:15 AM 48.2 °F - 41.0 °F 76% 30.02 in 10.0 mi WNW 6.9 mph - N/A   Clear
12:35 AM 50.0 °F - 42.8 °F 76% 30.02 in 10.0 mi WNW 6.9 mph - N/A   Clear
12:55 AM 50.0 °F - 42.8 °F 76% 30.02 in 10.0 mi WNW 5.8 mph - N/A   Clear
1:15 AM 48.2 °F - 41.0 °F 76% 30.02 in 10.0 mi West 6.9 mph - N/A   Clear
1:35 AM 48.2 °F - 41.0 °F 76% 30.02 in 10.0 mi West 6.9 mph - N/A   Clear
1:55 AM 48.2 °F - 41.0 °F 76% 30.03 in 10.0 mi WNW 6.9 mph - N/A   Clear
2:15 AM 48.2 °F - 41.0 °F 76% 30.03 in 10.0 mi West 6.9 mph - N/A   Clear
2:35 AM 48.2 °F - 41.0 °F 76% 30.03 in 10.0 mi WNW 6.9 mph - N/A   Clear
2:55 AM 50.0 °F - 41.0 °F 71% 30.03 in 10.0 mi WNW 5.8 mph - N/A   Clear
3:15 AM 48.2 °F - 41.0 °F 76% 30.04 in 10.0 mi WNW 5.8 mph - N/A   Clear
3:35 AM 48.2 °F - 41.0 °F 76% 30.04 in 10.0 mi WNW 4.6 mph - N/A   Clear
3:55 AM 42.8 °F 40.1 °F 39.2 °F 87% 30.05 in 10.0 mi West 4.6 mph - N/A   Clear
4:15 AM 42.8 °F 41.1 °F 39.2 °F 87% 30.05 in 10.0 mi West 3.5 mph - N/A   Clear
4:55 AM 41.0 °F - 37.4 °F 87% 30.07 in 10.0 mi Calm Calm - N/A   Clear
5:15 AM 44.6 °F 41.4 °F 41.0 °F 87% 30.07 in 10.0 mi WNW 5.8 mph - N/A   Clear
5:35 AM 39.2 °F 37.0 °F 37.4 °F 93% 30.08 in 10.0 mi West 3.5 mph - N/A   Clear
5:55 AM 39.2 °F - 37.4 °F 93% 30.09 in 10.0 mi Calm Calm - N/A   Clear
6:15 AM 39.2 °F - 35.6 °F 87% 30.10 in 10.0 mi Calm Calm - N/A   Clear
6:36 AM 39.2 °F - 35.6 °F 87% 30.12 in 10.0 mi Calm Calm - N/A   Clear
7:15 AM 42.8 °F - 39.2 °F 87% 30.14 in 10.0 mi Calm Calm - N/A   Clear
7:35 AM 48.2 °F - 44.6 °F 87% 30.15 in 10.0 mi West 3.5 mph - N/A   Clear
7:55 AM 53.6 °F - 44.6 °F 72% 30.16 in 10.0 mi West 5.8 mph - N/A   Clear
8:15 AM 55.4 °F - 44.6 °F 67% 30.17 in 10.0 mi West 5.8 mph - N/A   Clear
8:35 AM 55.4 °F - 44.6 °F 67% 30.18 in 10.0 mi West 8.1 mph - N/A   Clear
8:55 AM 57.2 °F - 44.6 °F 63% 30.18 in 10.0 mi WNW 4.6 mph - N/A   Clear
9:15 AM 60.8 °F - 42.8 °F 52% 30.19 in 7.0 mi West 3.5 mph - N/A   Clear
9:35 AM 60.8 °F - 42.8 °F 52% 30.19 in 10.0 mi WNW 5.8 mph - N/A   Clear
9:55 AM 60.8 °F - 42.8 °F 52% 30.19 in 10.0 mi North 3.5 mph - N/A   Clear
10:15 AM 60.8 °F - 42.8 °F 52% 30.19 in 10.0 mi NW 5.8 mph - N/A   Clear
10:35 AM 62.6 °F - 42.8 °F 48% 30.19 in 10.0 mi Calm Calm - N/A   Clear
10:55 AM 64.4 °F - 44.6 °F 49% 30.19 in 10.0 mi Calm Calm - N/A   Clear
11:15 AM 66.2 °F - 42.8 °F 43% 30.19 in 10.0 mi West 3.5 mph - N/A   Clear
11:35 AM 66.2 °F - 42.8 °F 43% 30.19 in 10.0 mi West 4.6 mph - N/A   Clear
11:55 AM 68.0 °F - 42.8 °F 40% 30.19 in 10.0 mi West 6.9 mph - N/A   Clear
12:15 PM 69.8 °F - 44.6 °F 40% 30.19 in 10.0 mi NW 9.2 mph - N/A   Clear
12:35 PM 69.8 °F - 42.8 °F 38% 30.18 in 10.0 mi WNW 6.9 mph - N/A   Clear
12:55 PM 69.8 °F - 41.0 °F 35% 30.18 in 10.0 mi North 3.5 mph - N/A   Clear
1:15 PM 71.6 °F - 42.8 °F 35% 30.17 in 7.0 mi West 6.9 mph - N/A   Clear
1:35 PM 71.6 °F - 44.6 °F 38% 30.17 in 10.0 mi WSW 9.2 mph - N/A   Clear
1:55 PM 71.6 °F - 42.8 °F 35% 30.16 in 10.0 mi SSW 9.2 mph - N/A   Clear
2:15 PM 71.6 °F - 41.0 °F 33% 30.16 in 10.0 mi West 5.8 mph - N/A   Clear
2:35 PM 73.4 °F - 42.8 °F 33% 30.16 in 10.0 mi West 3.5 mph - N/A   Clear
2:55 PM 73.4 °F - 42.8 °F 33% 30.16 in 10.0 mi West 8.1 mph 17.3 mph N/A   Clear
3:15 PM 73.4 °F - 44.6 °F 36% 30.15 in 10.0 mi SSW 4.6 mph - N/A   Clear
3:35 PM 73.4 °F - 42.8 °F 33% 30.15 in 10.0 mi West 6.9 mph - N/A   Clear
3:55 PM 73.4 °F - 41.0 °F 31% 30.15 in 10.0 mi West 10.4 mph - N/A   Clear
4:35 PM 73.4 °F - 42.8 °F 33% 30.15 in 10.0 mi WSW 5.8 mph - N/A   Clear
4:55 PM 73.4 °F - 42.8 °F 33% 30.16 in 10.0 mi WSW 10.4 mph - N/A   Clear
5:15 PM 71.6 °F - 42.8 °F 35% 30.16 in 10.0 mi West 10.4 mph - N/A   Clear
5:35 PM 71.6 °F - 41.0 °F 33% 30.16 in 10.0 mi West 9.2 mph - N/A   Clear
5:55 PM 69.8 °F - 42.8 °F 38% 30.17 in 10.0 mi West 4.6 mph - N/A   Clear
6:15 PM 68.0 °F - 48.2 °F 49% 30.17 in 10.0 mi Calm Calm - N/A   Clear
6:35 PM 64.4 °F - 48.2 °F 56% 30.17 in 10.0 mi Calm Calm - N/A   Clear
6:55 PM 60.8 °F - 51.8 °F 72% 30.17 in 10.0 mi Calm Calm - N/A   Clear
7:15 PM 57.2 °F - 51.8 °F 82% 30.18 in 10.0 mi Calm Calm - N/A   Clear
7:35 PM 55.4 °F - 50.0 °F 82% 30.18 in 10.0 mi Calm Calm - N/A   Clear
7:55 PM 53.6 °F - 48.2 °F 82% 30.19 in 10.0 mi Calm Calm - N/A   Clear
8:15 PM 51.8 °F - 48.2 °F 88% 30.19 in 10.0 mi WSW 4.6 mph - N/A   Clear
8:35 PM 51.8 °F - 48.2 °F 88% 30.20 in 10.0 mi WSW 3.5 mph - N/A   Clear
8:55 PM 51.8 °F - 46.4 °F 82% 30.20 in 10.0 mi West 3.5 mph - N/A   Clear
9:15 PM 51.8 °F - 46.4 °F 82% 30.21 in 10.0 mi West 3.5 mph - N/A   Clear
9:35 PM 48.2 °F - 46.4 °F 93% 30.21 in 10.0 mi Calm Calm - N/A   Clear
9:55 PM 48.2 °F - 44.6 °F 87% 30.22 in 10.0 mi SSE 3.5 mph - N/A   Clear
10:15 PM 48.2 °F - 44.6 °F 87% 30.22 in 10.0 mi SW 3.5 mph - N/A   Clear
10:35 PM 46.4 °F - 44.6 °F 93% 30.22 in 10.0 mi Calm Calm - N/A   Clear
10:55 PM 46.4 °F - 44.6 °F 93% 30.23 in 10.0 mi Calm Calm - N/A   Clear
11:15 PM 46.4 °F - 44.6 °F 93% 30.23 in 10.0 mi Calm Calm - N/A   Clear
11:35 PM 44.6 °F 41.4 °F 42.8 °F 93% 30.24 in 10.0 mi ESE 5.8 mph - N/A   Clear
11:55 PM 46.4 °F - 42.8 °F 87% 30.24 in 10.0 mi Calm Calm - N/A   Clear